Wetterdaten: Samstag, 10.04.2010
Datum Zeit Temp. A. Feuchte A. Luftdruck Regen Wind Richtung Richtung Sonnenschein UV Solar Windben
10.04.2010 00:00 6,3 C 86 % 1030,2 hPa 0,0 mm 0,0 km/h (0 Bft) N 360 0 min 0 UV-I 0 W/m 1,6 km/h (1 Bft)
10.04.2010 00:10 6,2 C 86 % 1030,3 hPa 0,0 mm 0,0 km/h (0 Bft) N 360 0 min 0 UV-I 0 W/m 1,6 km/h (1 Bft)
10.04.2010 00:20 6,1 C 86 % 1030,2 hPa 0,0 mm 0,0 km/h (0 Bft) N 360 0 min 0 UV-I 0 W/m 1,6 km/h (1 Bft)
10.04.2010 00:30 6,2 C 85 % 1030,3 hPa 0,0 mm 0,0 km/h (0 Bft) N 360 0 min 0 UV-I 0 W/m 3,2 km/h (1 Bft)
10.04.2010 00:40 6,1 C 84 % 1030,3 hPa 0,0 mm 0,0 km/h (0 Bft) N 360 0 min 0 UV-I 0 W/m 1,6 km/h (1 Bft)
10.04.2010 00:50 6,0 C 84 % 1030,4 hPa 0,0 mm 0,0 km/h (0 Bft) N 360 0 min 0 UV-I 0 W/m 1,6 km/h (1 Bft)
10.04.2010 01:00 5,9 C 84 % 1030,4 hPa 0,0 mm 0,0 km/h (0 Bft) N 360 0 min 0 UV-I 0 W/m 1,6 km/h (1 Bft)
10.04.2010 01:10 6,0 C 83 % 1030,5 hPa 0,0 mm 0,0 km/h (0 Bft) N 360 0 min 0 UV-I 0 W/m 1,6 km/h (1 Bft)
10.04.2010 01:20 5,8 C 84 % 1030,4 hPa 0,0 mm 0,0 km/h (0 Bft) N 360 0 min 0 UV-I 0 W/m 1,6 km/h (1 Bft)
10.04.2010 01:30 5,7 C 84 % 1030,4 hPa 0,0 mm 0,0 km/h (0 Bft) NO 45 0 min 0 UV-I 0 W/m 4,8 km/h (1 Bft)
10.04.2010 01:40 5,7 C 84 % 1030,5 hPa 0,0 mm 0,0 km/h (0 Bft) N 0 0 min 0 UV-I 0 W/m 0,0 km/h (0 Bft)
10.04.2010 01:50 5,6 C 84 % 1030,5 hPa 0,0 mm 0,0 km/h (0 Bft) N 0 0 min 0 UV-I 0 W/m 0,0 km/h (0 Bft)
10.04.2010 02:00 5,6 C 84 % 1030,5 hPa 0,0 mm 0,0 km/h (0 Bft) NO 45 0 min 0 UV-I 0 W/m 1,6 km/h (1 Bft)
10.04.2010 02:10 5,4 C 84 % 1030,5 hPa 0,0 mm 0,0 km/h (0 Bft) NO 45 0 min 0 UV-I 0 W/m 1,6 km/h (1 Bft)
10.04.2010 02:20 5,0 C 84 % 1030,5 hPa 0,0 mm 0,0 km/h (0 Bft) N 0 0 min 0 UV-I 0 W/m 0,0 km/h (0 Bft)
10.04.2010 02:30 4,8 C 85 % 1030,6 hPa 0,0 mm 0,0 km/h (0 Bft) N 0 0 min 0 UV-I 0 W/m 0,0 km/h (0 Bft)
10.04.2010 02:40 4,8 C 85 % 1030,7 hPa 0,0 mm 0,0 km/h (0 Bft) NO 45 0 min 0 UV-I 0 W/m 1,6 km/h (1 Bft)
10.04.2010 02:50 4,9 C 85 % 1030,6 hPa 0,0 mm 0,0 km/h (0 Bft) N 0 0 min 0 UV-I 0 W/m 0,0 km/h (0 Bft)
10.04.2010 03:00 4,9 C 84 % 1030,6 hPa 0,0 mm 0,0 km/h (0 Bft) N 0 0 min 0 UV-I 0 W/m 0,0 km/h (0 Bft)
10.04.2010 03:10 4,8 C 85 % 1030,5 hPa 0,0 mm 0,0 km/h (0 Bft) N 0 0 min 0 UV-I 0 W/m 0,0 km/h (0 Bft)
10.04.2010 03:20 4,8 C 85 % 1030,4 hPa 0,0 mm 0,0 km/h (0 Bft) N 0 0 min 0 UV-I 0 W/m 0,0 km/h (0 Bft)
10.04.2010 03:30 4,9 C 85 % 1030,4 hPa 0,0 mm 0,0 km/h (0 Bft) N 0 0 min 0 UV-I 0 W/m 0,0 km/h (0 Bft)
10.04.2010 03:40 4,8 C 85 % 1030,4 hPa 0,0 mm 0,0 km/h (0 Bft) N 0 0 min 0 UV-I 0 W/m 0,0 km/h (0 Bft)
10.04.2010 03:50 4,7 C 85 % 1030,4 hPa 0,0 mm 0,0 km/h (0 Bft) N 0 0 min 0 UV-I 0 W/m 0,0 km/h (0 Bft)
10.04.2010 04:00 4,7 C 85 % 1030,4 hPa 0,0 mm 0,0 km/h (0 Bft) N 0 0 min 0 UV-I 0 W/m 0,0 km/h (0 Bft)
10.04.2010 04:10 4,6 C 85 % 1030,4 hPa 0,0 mm 0,0 km/h (0 Bft) N 0 0 min 0 UV-I 0 W/m 0,0 km/h (0 Bft)
10.04.2010 04:20 4,3 C 86 % 1030,4 hPa 0,0 mm 0,0 km/h (0 Bft) N 0 0 min 0 UV-I 0 W/m 0,0 km/h (0 Bft)
10.04.2010 04:30 4,1 C 86 % 1030,4 hPa 0,0 mm 0,0 km/h (0 Bft) N 0 0 min 0 UV-I 0 W/m 0,0 km/h (0 Bft)
10.04.2010 04:40 3,8 C 86 % 1030,5 hPa 0,0 mm 0,0 km/h (0 Bft) N 0 0 min 0 UV-I 0 W/m 0,0 km/h (0 Bft)
10.04.2010 04:50 3,6 C 87 % 1030,4 hPa 0,0 mm 0,0 km/h (0 Bft) N 0 0 min 0 UV-I 0 W/m 0,0 km/h (0 Bft)
10.04.2010 05:00 3,4 C 87 % 1030,4 hPa 0,0 mm 0,0 km/h (0 Bft) N 0 0 min 0 UV-I 0 W/m 0,0 km/h (0 Bft)
10.04.2010 05:10 3,2 C 87 % 1030,4 hPa 0,0 mm 0,0 km/h (0 Bft) N 0 0 min 0 UV-I 0 W/m 0,0 km/h (0 Bft)
10.04.2010 05:20 3,1 C 88 % 1030,4 hPa 0,0 mm 0,0 km/h (0 Bft) N 0 0 min 0 UV-I 0 W/m 0,0 km/h (0 Bft)
10.04.2010 05:30 2,9 C 88 % 1030,3 hPa 0,0 mm 0,0 km/h (0 Bft) N 0 0 min 0 UV-I 0 W/m 0,0 km/h (0 Bft)
10.04.2010 05:40 2,8 C 88 % 1030,3 hPa 0,0 mm 0,0 km/h (0 Bft) N 0 0 min 0 UV-I 0 W/m 0,0 km/h (0 Bft)
10.04.2010 05:50 2,6 C 89 % 1030,3 hPa 0,0 mm 0,0 km/h (0 Bft) N 0 0 min 0 UV-I 0 W/m 0,0 km/h (0 Bft)
10.04.2010 06:00 2,4 C 88 % 1030,2 hPa 0,0 mm 0,0 km/h (0 Bft) N 0 0 min 0 UV-I 0 W/m 0,0 km/h (0 Bft)
10.04.2010 06:10 2,1 C 89 % 1030,3 hPa 0,0 mm 0,0 km/h (0 Bft) N 0 0 min 0 UV-I 0 W/m 0,0 km/h (0 Bft)
10.04.2010 06:20 2,1 C 89 % 1030,3 hPa 0,0 mm 0,0 km/h (0 Bft) N 0 0 min 0 UV-I 0 W/m 0,0 km/h (0 Bft)
10.04.2010 06:30 2,0 C 89 % 1030,3 hPa 0,0 mm 0,0 km/h (0 Bft) N 0 0 min 0 UV-I 0 W/m 0,0 km/h (0 Bft)
10.04.2010 06:40 1,8 C 89 % 1030,5 hPa 0,0 mm 0,0 km/h (0 Bft) N 0 0 min 0 UV-I 0 W/m 0,0 km/h (0 Bft)
10.04.2010 06:50 1,6 C 90 % 1030,5 hPa 0,0 mm 0,0 km/h (0 Bft) N 0 0 min 0 UV-I 5 W/m 0,0 km/h (0 Bft)
10.04.2010 07:00 1,6 C 90 % 1030,6 hPa 0,0 mm 0,0 km/h (0 Bft) N 0 0 min 0 UV-I 7 W/m 0,0 km/h (0 Bft)
10.04.2010 07:10 1,9 C 91 % 1030,6 hPa 0,0 mm 0,0 km/h (0 Bft) NO 45 0 min 0 UV-I 16 W/m 1,6 km/h (1 Bft)
10.04.2010 07:20 2,3 C 91 % 1030,6 hPa 0,0 mm 0,0 km/h (0 Bft) N 0 0 min 0 UV-I 21 W/m 0,0 km/h (0 Bft)
10.04.2010 07:30 2,6 C 91 % 1030,5 hPa 0,0 mm 0,0 km/h (0 Bft) N 0 0 min 0 UV-I 35 W/m 0,0 km/h (0 Bft)
10.04.2010 07:40 2,9 C 91 % 1030,6 hPa 0,0 mm 0,0 km/h (0 Bft) NO 45 0 min 0 UV-I 49 W/m 1,6 km/h (1 Bft)
10.04.2010 07:50 3,1 C 91 % 1030,5 hPa 0,0 mm 0,0 km/h (0 Bft) NO 45 0 min 0 UV-I 69 W/m 1,6 km/h (1 Bft)
10.04.2010 08:00 3,5 C 91 % 1030,5 hPa 0,0 mm 0,0 km/h (0 Bft) O-NO 65 0 min 0 UV-I 68 W/m 0,0 km/h (0 Bft)
10.04.2010 08:10 3,7 C 90 % 1030,5 hPa 0,0 mm 0,0 km/h (0 Bft) O-NO 67 0 min 0 UV-I 74 W/m 1,6 km/h (1 Bft)
10.04.2010 08:20 4,1 C 90 % 1030,4 hPa 0,0 mm 0,0 km/h (0 Bft) O 90 0 min 0 UV-I 111 W/m 1,6 km/h (1 Bft)
10.04.2010 08:30 4,4 C 89 % 1030,5 hPa 0,0 mm 1,6 km/h (1 Bft) O 90 0 min 1 UV-I 118 W/m 4,8 km/h (1 Bft)
10.04.2010 08:40 4,6 C 89 % 1030,5 hPa 0,0 mm 1,6 km/h (1 Bft) S 180 0 min 1 UV-I 121 W/m 6,4 km/h (2 Bft)
10.04.2010 08:50 4,8 C 89 % 1030,5 hPa 0,0 mm 1,6 km/h (1 Bft) SW 225 0 min 1 UV-I 137 W/m 6,4 km/h (2 Bft)
10.04.2010 09:00 4,9 C 89 % 1030,4 hPa 0,0 mm 1,6 km/h (1 Bft) W-NW 292 0 min 1 UV-I 148 W/m 8,0 km/h (2 Bft)
10.04.2010 09:10 5,2 C 88 % 1030,5 hPa 0,0 mm 1,6 km/h (1 Bft) W-SW 247 0 min 1 UV-I 158 W/m 6,4 km/h (2 Bft)
10.04.2010 09:20 5,5 C 88 % 1030,6 hPa 0,0 mm 1,6 km/h (1 Bft) NW 315 0 min 1 UV-I 165 W/m 6,4 km/h (2 Bft)
10.04.2010 09:30 5,6 C 87 % 1030,6 hPa 0,0 mm 1,6 km/h (1 Bft) N 360 0 min 1 UV-I 153 W/m 6,4 km/h (2 Bft)
10.04.2010 09:40 5,8 C 87 % 1030,6 hPa 0,0 mm 1,6 km/h (1 Bft) N-NW 337 0 min 1 UV-I 151 W/m 6,4 km/h (2 Bft)
10.04.2010 09:50 5,9 C 86 % 1030,6 hPa 0,0 mm 1,6 km/h (1 Bft) NW 315 0 min 1 UV-I 158 W/m 9,7 km/h (2 Bft)
10.04.2010 10:00 5,9 C 86 % 1030,6 hPa 0,0 mm 3,2 km/h (1 Bft) W 270 0 min 1 UV-I 174 W/m 9,7 km/h (2 Bft)
10.04.2010 10:10 5,8 C 86 % 1030,6 hPa 0,0 mm 1,6 km/h (1 Bft) W 270 0 min 1 UV-I 192 W/m 8,0 km/h (2 Bft)
10.04.2010 10:20 5,9 C 86 % 1030,4 hPa 0,0 mm 1,6 km/h (1 Bft) W-NW 292 0 min 1 UV-I 197 W/m 11,3 km/h (2 Bft)
10.04.2010 10:30 5,9 C 86 % 1030,5 hPa 0,0 mm 1,6 km/h (1 Bft) W-NW 292 0 min 1 UV-I 207 W/m 8,0 km/h (2 Bft)
10.04.2010 10:40 6,2 C 85 % 1030,4 hPa 0,0 mm 1,6 km/h (1 Bft) W-NW 292 0 min 1 UV-I 206 W/m 9,7 km/h (2 Bft)
10.04.2010 10:50 6,3 C 83 % 1030,3 hPa 0,0 mm 1,6 km/h (1 Bft) NW 315 0 min 1 UV-I 163 W/m 8,0 km/h (2 Bft)
10.04.2010 11:00 6,4 C 83 % 1030,3 hPa 0,0 mm 3,2 km/h (1 Bft) W-NW 292 0 min 1 UV-I 195 W/m 8,0 km/h (2 Bft)
10.04.2010 11:10 6,7 C 81 % 1030,3 hPa 0,0 mm 3,2 km/h (1 Bft) W-NW 292 0 min 1 UV-I 179 W/m 9,7 km/h (2 Bft)
10.04.2010 11:20 6,7 C 79 % 1030,4 hPa 0,0 mm 1,6 km/h (1 Bft) W 270 0 min 1 UV-I 209 W/m 8,0 km/h (2 Bft)
10.04.2010 11:30 6,8 C 78 % 1030,4 hPa 0,0 mm 3,2 km/h (1 Bft) NW 315 0 min 1 UV-I 200 W/m 9,7 km/h (2 Bft)
10.04.2010 11:40 7,0 C 79 % 1030,3 hPa 0,0 mm 1,6 km/h (1 Bft) N-NO 22 0 min 2 UV-I 346 W/m 8,0 km/h (2 Bft)
10.04.2010 11:50 7,3 C 76 % 1030,3 hPa 0,0 mm 3,2 km/h (1 Bft) W-NW 292 0 min 2 UV-I 362 W/m 8,0 km/h (2 Bft)
10.04.2010 12:00 7,3 C 76 % 1030,3 hPa 0,0 mm 3,2 km/h (1 Bft) W-NW 292 0 min 2 UV-I 257 W/m 11,3 km/h (2 Bft)
10.04.2010 12:10 7,7 C 73 % 1030,2 hPa 0,0 mm 3,2 km/h (1 Bft) N 360 10 min 4 UV-I 492 W/m 14,5 km/h (3 Bft)
10.04.2010 12:20 7,9 C 72 % 1030,0 hPa 0,0 mm 3,2 km/h (1 Bft) N-NO 22 10 min 5 UV-I 527 W/m 9,7 km/h (2 Bft)
10.04.2010 12:30 8,6 C 70 % 1030,0 hPa 0,0 mm 1,6 km/h (1 Bft) NO 45 10 min 4 UV-I 513 W/m 16,1 km/h (3 Bft)
10.04.2010 12:40 8,7 C 69 % 1029,9 hPa 0,0 mm 1,6 km/h (1 Bft) NW 315 0 min 3 UV-I 380 W/m 9,7 km/h (2 Bft)
10.04.2010 12:50 8,6 C 68 % 1029,9 hPa 0,0 mm 3,2 km/h (1 Bft) N 360 10 min 4 UV-I 1048 W/m 11,3 km/h (2 Bft)
10.04.2010 13:00 8,8 C 68 % 1029,8 hPa 0,0 mm 3,2 km/h (1 Bft) NW 315 0 min 5 UV-I 287 W/m 11,3 km/h (2 Bft)
10.04.2010 13:10 9,1 C 65 % 1029,7 hPa 0,0 mm 3,2 km/h (1 Bft) NW 315 0 min 4 UV-I 385 W/m 11,3 km/h (2 Bft)
10.04.2010 13:20 9,0 C 67 % 1029,7 hPa 0,0 mm 3,2 km/h (1 Bft) N 360 0 min 2 UV-I 329 W/m 16,1 km/h (3 Bft)
10.04.2010 13:30 9,0 C 66 % 1029,6 hPa 0,0 mm 1,6 km/h (1 Bft) N-NO 22 0 min 2 UV-I 285 W/m 6,4 km/h (2 Bft)
10.04.2010 13:40 8,9 C 66 % 1029,6 hPa 0,0 mm 3,2 km/h (1 Bft) W-NW 292 0 min 2 UV-I 200 W/m 11,3 km/h (2 Bft)
10.04.2010 13:50 8,9 C 65 % 1029,5 hPa 0,0 mm 4,8 km/h (1 Bft) W 270 0 min 2 UV-I 336 W/m 17,7 km/h (3 Bft)
10.04.2010 14:00 9,1 C 64 % 1029,4 hPa 0,0 mm 3,2 km/h (1 Bft) N 360 0 min 2 UV-I 269 W/m 14,5 km/h (3 Bft)
10.04.2010 14:10 9,2 C 65 % 1029,3 hPa 0,0 mm 3,2 km/h (1 Bft) N-NO 22 0 min 2 UV-I 362 W/m 14,5 km/h (3 Bft)
10.04.2010 14:20 9,4 C 66 % 1029,2 hPa 0,0 mm 3,2 km/h (1 Bft) N-NO 22 0 min 2 UV-I 285 W/m 14,5 km/h (3 Bft)
10.04.2010 14:30 9,2 C 65 % 1029,1 hPa 0,0 mm 1,6 km/h (1 Bft) N 360 0 min 3 UV-I 366 W/m 9,7 km/h (2 Bft)
10.04.2010 14:40 9,6 C 65 % 1029,1 hPa 0,0 mm 1,6 km/h (1 Bft) NO 45 10 min 3 UV-I 390 W/m 11,3 km/h (2 Bft)
10.04.2010 14:50 9,6 C 65 % 1029,0 hPa 0,0 mm 3,2 km/h (1 Bft) NW 315 0 min 2 UV-I 330 W/m 11,3 km/h (2 Bft)
10.04.2010 15:00 9,4 C 67 % 1029,0 hPa 0,0 mm 3,2 km/h (1 Bft) W-NW 292 0 min 4 UV-I 366 W/m 9,7 km/h (2 Bft)
10.04.2010 15:10 9,8 C 65 % 1028,9 hPa 0,0 mm 3,2 km/h (1 Bft) N-NO 22 10 min 4 UV-I 413 W/m 14,5 km/h (3 Bft)
10.04.2010 15:20 9,9 C 64 % 1028,8 hPa 0,0 mm 4,8 km/h (1 Bft) N-NO 22 10 min 4 UV-I 462 W/m 17,7 km/h (3 Bft)
10.04.2010 15:30 9,8 C 63 % 1028,6 hPa 0,0 mm 3,2 km/h (1 Bft) W-NW 292 10 min 3 UV-I 355 W/m 9,7 km/h (2 Bft)
10.04.2010 15:40 10,1 C 63 % 1028,6 hPa 0,0 mm 3,2 km/h (1 Bft) N-NO 22 0 min 3 UV-I 330 W/m 11,3 km/h (2 Bft)
10.04.2010 15:50 10,1 C 62 % 1028,5 hPa 0,0 mm 3,2 km/h (1 Bft) N-NO 22 10 min 2 UV-I 418 W/m 11,3 km/h (2 Bft)
10.04.2010 16:00 10,7 C 61 % 1028,3 hPa 0,0 mm 3,1 km/h (1 Bft) NW 311 10 min 3 UV-I 753 W/m 8,0 km/h (2 Bft)
10.04.2010 16:10 10,8 C 60 % 1028,2 hPa 0,0 mm 3,2 km/h (1 Bft) N-NO 22 10 min 3 UV-I 759 W/m 17,7 km/h (3 Bft)
10.04.2010 16:20 10,8 C 60 % 1028,1 hPa 0,0 mm 3,2 km/h (1 Bft) N-NO 22 10 min 3 UV-I 768 W/m 11,3 km/h (2 Bft)
10.04.2010 16:30 11,1 C 60 % 1028,0 hPa 0,0 mm 3,2 km/h (1 Bft) W-NW 292 10 min 2 UV-I 768 W/m 9,7 km/h (2 Bft)
10.04.2010 16:40 11,2 C 60 % 1027,9 hPa 0,0 mm 3,2 km/h (1 Bft) N-NO 22 0 min 2 UV-I 272 W/m 14,5 km/h (3 Bft)
10.04.2010 16:50 11,3 C 57 % 1027,7 hPa 0,0 mm 3,2 km/h (1 Bft) N-NO 22 0 min 2 UV-I 264 W/m 11,3 km/h (2 Bft)
10.04.2010 17:00 11,4 C 58 % 1027,6 hPa 0,0 mm 3,2 km/h (1 Bft) N-NO 22 10 min 2 UV-I 624 W/m 16,1 km/h (3 Bft)
10.04.2010 17:10 11,9 C 55 % 1027,6 hPa 0,0 mm 1,6 km/h (1 Bft) N-NO 22 10 min 2 UV-I 613 W/m 8,0 km/h (2 Bft)
10.04.2010 17:20 11,9 C 54 % 1027,4 hPa 0,0 mm 3,2 km/h (1 Bft) NW 315 10 min 2 UV-I 617 W/m 11,3 km/h (2 Bft)
10.04.2010 17:30 12,4 C 53 % 1026,9 hPa 0,0 mm 3,2 km/h (1 Bft) W 270 10 min 2 UV-I 622 W/m 14,5 km/h (3 Bft)
10.04.2010 17:40 11,9 C 54 % 1027,4 hPa 0,0 mm 3,2 km/h (1 Bft) N 360 10 min 1 UV-I 497 W/m 11,3 km/h (2 Bft)
10.04.2010 17:50 11,7 C 53 % 1027,2 hPa 0,0 mm 3,2 km/h (1 Bft) NW 315 10 min 1 UV-I 487 W/m 9,7 km/h (2 Bft)
10.04.2010 18:00 11,8 C 54 % 1027,1 hPa 0,0 mm 3,2 km/h (1 Bft) W-NW 292 10 min 1 UV-I 468 W/m 16,1 km/h (3 Bft)
10.04.2010 18:10 11,7 C 54 % 1027,0 hPa 0,0 mm 1,6 km/h (1 Bft) N-NO 22 10 min 1 UV-I 325 W/m 9,7 km/h (2 Bft)
10.04.2010 18:20 11,4 C 57 % 1027,0 hPa 0,0 mm 1,6 km/h (1 Bft) N-NO 22 10 min 1 UV-I 158 W/m 6,4 km/h (2 Bft)
10.04.2010 18:30 11,5 C 54 % 1026,9 hPa 0,0 mm 3,2 km/h (1 Bft) N-NO 22 10 min 1 UV-I 299 W/m 11,3 km/h (2 Bft)
10.04.2010 18:40 11,3 C 55 % 1026,8 hPa 0,0 mm 3,2 km/h (1 Bft) W-NW 292 10 min 1 UV-I 255 W/m 9,7 km/h (2 Bft)
10.04.2010 18:50 11,7 C 53 % 1026,7 hPa 0,0 mm 3,2 km/h (1 Bft) W-NW 292 10 min 1 UV-I 257 W/m 16,1 km/h (3 Bft)
10.04.2010 19:00 11,8 C 54 % 1026,6 hPa 0,0 mm 3,2 km/h (1 Bft) N-NO 22 10 min 0 UV-I 220 W/m 16,1 km/h (3 Bft)
10.04.2010 19:10 11,5 C 54 % 1026,5 hPa 0,0 mm 1,6 km/h (1 Bft) N 360 10 min 0 UV-I 153 W/m 9,7 km/h (2 Bft)
10.04.2010 19:20 11,1 C 55 % 1026,5 hPa 0,0 mm 1,6 km/h (1 Bft) N 360 0 min 0 UV-I 44 W/m 17,7 km/h (3 Bft)
10.04.2010 19:30 10,7 C 57 % 1026,7 hPa 0,0 mm 3,2 km/h (1 Bft) N-NO 22 0 min 0 UV-I 33 W/m 11,3 km/h (2 Bft)
10.04.2010 19:40 10,4 C 58 % 1026,6 hPa 0,0 mm 1,6 km/h (1 Bft) N-NO 22 0 min 0 UV-I 30 W/m 6,4 km/h (2 Bft)
10.04.2010 19:50 10,2 C 60 % 1026,7 hPa 0,0 mm 0,0 km/h (0 Bft) N-NO 22 10 min 0 UV-I 33 W/m 4,8 km/h (1 Bft)
10.04.2010 20:00 10,1 C 60 % 1026,7 hPa 0,0 mm 0,0 km/h (0 Bft) N 360 10 min 0 UV-I 28 W/m 6,4 km/h (2 Bft)
10.04.2010 20:10 9,9 C 61 % 1026,7 hPa 0,0 mm 0,0 km/h (0 Bft) N-NO 22 0 min 0 UV-I 14 W/m 6,4 km/h (2 Bft)
10.04.2010 20:20 9,6 C 62 % 1026,7 hPa 0,0 mm 0,0 km/h (0 Bft) NW 315 0 min 0 UV-I 5 W/m 1,6 km/h (1 Bft)
10.04.2010 20:30 9,2 C 65 % 1026,7 hPa 0,0 mm 0,0 km/h (0 Bft) NW 315 0 min 0 UV-I 0 W/m 3,2 km/h (1 Bft)
10.04.2010 20:40 8,7 C 65 % 1026,8 hPa 0,0 mm 0,0 km/h (0 Bft) NW 315 0 min 0 UV-I 0 W/m 3,2 km/h (1 Bft)
10.04.2010 20:50 8,4 C 66 % 1026,9 hPa 0,0 mm 0,0 km/h (0 Bft) NW 315 0 min 0 UV-I 0 W/m 1,6 km/h (1 Bft)
10.04.2010 21:00 8,2 C 67 % 1026,9 hPa 0,0 mm 0,0 km/h (0 Bft) NW 315 0 min 0 UV-I 0 W/m 1,6 km/h (1 Bft)
10.04.2010 21:10 7,9 C 69 % 1027,0 hPa 0,0 mm 0,0 km/h (0 Bft) NW 315 0 min 0 UV-I 0 W/m 1,6 km/h (1 Bft)
10.04.2010 21:20 7,7 C 70 % 1027,0 hPa 0,0 mm 0,0 km/h (0 Bft) NW 315 0 min 0 UV-I 0 W/m 4,8 km/h (1 Bft)
10.04.2010 21:30 7,8 C 70 % 1025,2 hPa 0,0 mm 0,0 km/h (0 Bft) N-NW 337 0 min 0 UV-I 0 W/m 1,6 km/h (1 Bft)
10.04.2010 21:40 7,7 C 70 % 1026,1 hPa 0,0 mm 0,0 km/h (0 Bft) N-NW 337 0 min 0 UV-I 0 W/m 1,6 km/h (1 Bft)
10.04.2010 21:50 7,7 C 71 % 1027,1 hPa 0,0 mm 0,0 km/h (0 Bft) N-NW 337 0 min 0 UV-I 0 W/m 4,8 km/h (1 Bft)
10.04.2010 22:00 7,6 C 71 % 1027,1 hPa 0,0 mm 0,0 km/h (0 Bft) N-NW 337 0 min 0 UV-I 0 W/m 3,2 km/h (1 Bft)
10.04.2010 22:10 7,3 C 72 % 1027,1 hPa 0,0 mm 1,6 km/h (1 Bft) N-NO 22 0 min 0 UV-I 0 W/m 9,7 km/h (2 Bft)
10.04.2010 22:20 7,3 C 72 % 1027,1 hPa 0,0 mm 1,6 km/h (1 Bft) N 360 0 min 0 UV-I 0 W/m 8,0 km/h (2 Bft)
10.04.2010 22:30 7,2 C 72 % 1027,1 hPa 0,0 mm 1,6 km/h (1 Bft) N 360 0 min 0 UV-I 0 W/m 6,4 km/h (2 Bft)
10.04.2010 22:40 7,2 C 73 % 1027,2 hPa 0,0 mm 1,6 km/h (1 Bft) N-NO 22 0 min 0 UV-I 0 W/m 8,0 km/h (2 Bft)
10.04.2010 22:50 7,2 C 72 % 1026,2 hPa 0,0 mm 1,6 km/h (1 Bft) N-NO 22 0 min 0 UV-I 0 W/m 9,7 km/h (2 Bft)
10.04.2010 23:00 7,3 C 72 % 1027,0 hPa 0,0 mm 3,2 km/h (1 Bft) N 360 0 min 0 UV-I 0 W/m 14,5 km/h (3 Bft)
10.04.2010 23:10 7,2 C 72 % 1025,6 hPa 0,0 mm 3,2 km/h (1 Bft) N 360 0 min 0 UV-I 0 W/m 11,3 km/h (2 Bft)
10.04.2010 23:20 7,1 C 73 % 1026,0 hPa 0,0 mm 1,6 km/h (1 Bft) N-NO 22 0 min 0 UV-I 0 W/m 9,7 km/h (2 Bft)
10.04.2010 23:30 6,9 C 73 % 1026,9 hPa 0,0 mm 1,6 km/h (1 Bft) N-NO 22 0 min 0 UV-I 0 W/m 8,0 km/h (2 Bft)
10.04.2010 23:40 6,8 C 74 % 1026,9 hPa 0,0 mm 1,6 km/h (1 Bft) N 360 0 min 0 UV-I 0 W/m 8,0 km/h (2 Bft)
10.04.2010 23:50 6,7 C 75 % 1027,0 hPa 0,0 mm 0,0 km/h (0 Bft) N 360 0 min 0 UV-I 0 W/m 6,4 km/h (2 Bft)
_ Min-Zeit 06:50 17:30 21:30 - 00:00 - - - - - 01:40
Minimum _ 1,5 C 53 % 1025,2 hPa - 0,0 km/h (0 Bft) - - - - - 0,0 km/h (0 Bft)
_ Max-Zeit 17:30 07:10 02:40 00:00 13:50 - - 12:10 12:20 12:50 13:50
Maximum _ 12,8 C 91 % 1030,7 hPa 0,0 mm 4,8 km/h
W (1 Bft)
- - 10 min 5 UV-I 1048 W/m 17,7 km/h
W-NW (3 Bft)
Durchschnitt _ 7,0 C 75 % 1029,1 hPa #0,0 mm 1,4 km/h (1 Bft) N-NO - #4:50 h 2 UV-I 282 W/m 6,4 km/h (2 Bft)